Time,TemperatureF,DewpointF,PressureIn,WindDirection,WindDirectionDegrees,WindSpeedMPH,WindSpeedGustMPH,Humidity,HourlyPrecipIn,Conditions,Clouds,dailyrainin,SoftwareType,DateUTC
2013-09-10 00:01:00,62.9,61.8,30.10,SE,132,0.0,0.0,96,0.02,,-RA,0.00,VWS V14.01,2013-09-10 04:01:00,
2013-09-10 00:02:00,62.9,61.8,30.10,SE,132,0.0,0.0,96,0.02,,-RA,0.00,VWS V14.01,2013-09-10 04:02:00,
2013-09-10 00:07:00,63.0,61.8,30.10,SE,132,0.0,0.0,96,0.02,,-RA,0.00,VWS V14.01,2013-09-10 04:07:00,
2013-09-10 00:12:00,63.1,61.9,30.10,South,184,0.0,0.0,96,0.02,,-RA,0.00,VWS V14.01,2013-09-10 04:12:00,
2013-09-10 00:17:00,63.1,61.9,30.09,South,191,0.0,0.0,96,0.02,,-RA,0.00,VWS V14.01,2013-09-10 04:17:00,
2013-09-10 00:22:00,63.0,61.8,30.09,South,186,0.0,0.0,96,0.02,,-RA,0.00,VWS V14.01,2013-09-10 04:22:00,
2013-09-10 00:27:00,63.0,61.8,30.08,ENE,75,0.0,0.0,96,0.02,,-RA,0.00,VWS V14.01,2013-09-10 04:27:00,
2013-09-10 00:32:00,62.9,61.8,30.08,East,79,2.0,2.0,96,0.00,,OVC090,0.00,VWS V14.01,2013-09-10 04:32:00,
2013-09-10 00:37:00,62.8,61.7,30.08,East,82,0.0,2.0,96,0.00,,OVC090,0.00,VWS V14.01,2013-09-10 04:37:00,
2013-09-10 00:42:00,62.8,61.7,30.08,East,79,2.0,2.0,96,0.00,,OVC090,0.00,VWS V14.01,2013-09-10 04:42:00,
2013-09-10 00:47:00,62.8,61.7,30.08,East,88,0.0,2.0,96,0.00,,OVC090,0.00,VWS V14.01,2013-09-10 04:47:00,
2013-09-10 00:52:00,62.8,61.7,30.09,East,82,0.0,2.0,96,0.00,,OVC090,0.00,VWS V14.01,2013-09-10 04:52:00,
2013-09-10 00:57:00,62.8,61.7,30.09,East,91,0.0,2.0,96,0.00,,OVC090,0.00,VWS V14.01,2013-09-10 04:57:00,
2013-09-10 01:02:00,62.6,61.5,30.09,ESE,113,0.0,0.0,96,0.00,,BKN100,0.00,VWS V14.01,2013-09-10 05:02:00,
2013-09-10 01:07:00,62.5,61.3,30.09,ESE,113,0.0,0.0,96,0.00,,BKN100,0.00,VWS V14.01,2013-09-10 05:07:00,
2013-09-10 01:12:00,62.5,61.3,30.08,SE,129,0.0,0.0,96,0.00,,BKN100,0.00,VWS V14.01,2013-09-10 05:12:00,
2013-09-10 01:17:00,62.5,61.3,30.08,ESE,120,0.0,0.0,96,0.00,,BKN100,0.00,VWS V14.01,2013-09-10 05:17:00,
2013-09-10 01:22:00,62.5,61.3,30.08,East,94,1.0,3.0,96,0.00,,BKN100,0.00,VWS V14.01,2013-09-10 05:22:00,
2013-09-10 01:27:00,62.5,61.3,30.09,East,86,0.0,3.0,96,0.00,,BKN100,0.00,VWS V14.01,2013-09-10 05:27:00,
2013-09-10 01:32:00,62.5,61.3,30.08,East,100,0.0,0.0,96,0.00,,BKN008,0.00,VWS V14.01,2013-09-10 05:32:00,
2013-09-10 01:37:00,62.6,61.5,30.08,East,100,0.0,0.0,96,0.00,,BKN008,0.00,VWS V14.01,2013-09-10 05:37:00,
2013-09-10 01:42:00,62.6,61.5,30.08,East,96,3.0,3.0,96,0.00,,BKN008,0.00,VWS V14.01,2013-09-10 05:42:00,
2013-09-10 01:47:00,62.6,61.5,30.07,ESE,117,1.0,3.0,96,0.00,,BKN008,0.00,VWS V14.01,2013-09-10 05:47:00,
2013-09-10 01:52:00,62.6,61.5,30.07,East,91,1.0,3.0,96,0.00,,BKN008,0.00,VWS V14.01,2013-09-10 05:52:00,
2013-09-10 01:57:00,62.5,61.3,30.07,East,92,2.0,4.0,96,0.00,,BKN008,0.00,VWS V14.01,2013-09-10 05:57:00,
2013-09-10 02:02:00,62.4,61.2,30.07,ESE,105,0.0,3.0,96,0.00,,OVC080,0.00,VWS V14.01,2013-09-10 06:02:00,
2013-09-10 02:07:00,62.4,61.2,30.07,ESE,105,0.0,3.0,96,0.00,,OVC080,0.00,VWS V14.01,2013-09-10 06:07:00,
2013-09-10 02:12:00,62.4,61.2,30.07,East,86,2.0,3.0,96,0.00,,OVC080,0.00,VWS V14.01,2013-09-10 06:12:00,
2013-09-10 02:17:00,62.4,61.2,30.07,ESE,110,0.0,3.0,96,0.00,,OVC080,0.00,VWS V14.01,2013-09-10 06:17:00,
2013-09-10 02:22:00,62.2,61.0,30.07,ESE,103,0.0,3.0,96,0.00,,OVC080,0.00,VWS V14.01,2013-09-10 06:22:00,
2013-09-10 02:27:00,62.2,61.0,30.07,East,86,1.0,3.0,96,0.00,,OVC080,0.00,VWS V14.01,2013-09-10 06:27:00,
2013-09-10 02:32:00,62.1,61.0,30.07,East,98,1.0,3.0,96,0.00,,OVC080,0.00,VWS V14.01,2013-09-10 06:32:00,
2013-09-10 02:37:00,62.1,61.0,30.07,East,91,1.0,3.0,96,0.00,,OVC080,0.00,VWS V14.01,2013-09-10 06:37:00,
2013-09-10 02:42:00,62.0,60.8,30.07,East,82,0.0,3.0,96,0.00,,OVC080,0.00,VWS V14.01,2013-09-10 06:42:00,
2013-09-10 02:47:00,61.9,61.0,30.07,ESE,105,1.0,4.0,97,0.00,,OVC080,0.00,VWS V14.01,2013-09-10 06:47:00,
2013-09-10 02:52:00,61.8,60.9,30.07,East,79,3.0,4.0,97,0.00,,OVC080,0.00,VWS V14.01,2013-09-10 06:52:00,
2013-09-10 02:57:00,61.9,61.0,30.07,ESE,120,0.0,4.0,97,0.00,,OVC080,0.00,VWS V14.01,2013-09-10 06:57:00,
2013-09-10 03:02:00,61.8,60.9,30.07,ESE,105,0.0,1.0,97,0.00,,SCT039,0.00,VWS V14.01,2013-09-10 07:02:00,
2013-09-10 03:07:00,61.8,60.9,30.07,East,89,2.0,3.0,97,0.00,,SCT039,0.00,VWS V14.01,2013-09-10 07:07:00,
2013-09-10 03:12:00,61.8,60.9,30.07,ESE,107,0.0,5.0,97,0.00,,SCT039,0.00,VWS V14.01,2013-09-10 07:12:00,
2013-09-10 03:17:00,61.8,60.9,30.07,ESE,104,0.0,5.0,97,0.00,,SCT039,0.00,VWS V14.01,2013-09-10 07:17:00,
2013-09-10 03:22:00,61.7,60.8,30.07,ENE,71,2.0,5.0,97,0.00,,SCT039,0.00,VWS V14.01,2013-09-10 07:22:00,
2013-09-10 03:27:00,61.8,60.9,30.07,East,87,0.0,5.0,97,0.00,,SCT039,0.00,VWS V14.01,2013-09-10 07:27:00,
2013-09-10 03:32:00,61.8,60.9,30.07,ESE,105,1.0,3.0,97,0.00,,SCT039,0.00,VWS V14.01,2013-09-10 07:32:00,
2013-09-10 03:37:00,61.8,60.9,30.07,East,84,1.0,3.0,97,0.00,,SCT039,0.00,VWS V14.01,2013-09-10 07:37:00,
2013-09-10 03:42:00,61.8,60.9,30.07,East,87,0.0,3.0,97,0.00,,SCT039,0.00,VWS V14.01,2013-09-10 07:42:00,
2013-09-10 03:47:00,61.8,60.9,30.08,East,94,0.0,3.0,97,0.00,,SCT039,0.00,VWS V14.01,2013-09-10 07:47:00,
2013-09-10 03:52:00,61.6,60.7,30.08,East,93,0.0,3.0,97,0.00,,SCT039,0.00,VWS V14.01,2013-09-10 07:52:00,
2013-09-10 03:57:00,61.5,60.6,30.08,East,86,0.0,3.0,97,0.00,,SCT039,0.00,VWS V14.01,2013-09-10 07:57:00,
2013-09-10 04:02:00,61.4,60.5,30.08,East,82,0.0,0.0,97,0.00,,BKN065,0.00,VWS V14.01,2013-09-10 08:02:00,
2013-09-10 04:07:00,61.3,60.4,30.08,ESE,105,0.0,0.0,97,0.00,,BKN065,0.00,VWS V14.01,2013-09-10 08:07:00,
2013-09-10 04:12:00,61.3,60.4,30.08,East,94,0.0,0.0,97,0.00,,BKN065,0.00,VWS V14.01,2013-09-10 08:12:00,
2013-09-10 04:17:00,61.3,60.4,30.08,ESE,107,0.0,0.0,97,0.00,,BKN065,0.00,VWS V14.01,2013-09-10 08:17:00,
2013-09-10 04:22:00,61.3,60.4,30.08,ESE,107,0.0,0.0,97,0.00,,BKN065,0.00,VWS V14.01,2013-09-10 08:22:00,
2013-09-10 04:27:00,61.3,60.4,30.08,ESE,108,0.0,0.0,97,0.00,,BKN065,0.00,VWS V14.01,2013-09-10 08:27:00,
2013-09-10 04:32:00,61.3,60.4,30.08,ESE,108,0.0,0.0,97,0.00,,BKN065,0.00,VWS V14.01,2013-09-10 08:32:00,
2013-09-10 04:37:00,61.4,60.8,30.08,ESE,108,0.0,0.0,98,0.00,,BKN065,0.00,VWS V14.01,2013-09-10 08:37:00,
2013-09-10 04:42:00,61.4,60.8,30.08,ESE,108,0.0,0.0,98,0.00,,BKN065,0.00,VWS V14.01,2013-09-10 08:42:00,
2013-09-10 04:47:00,61.5,60.9,30.08,ESE,108,0.0,0.0,98,0.00,,BKN065,0.00,VWS V14.01,2013-09-10 08:47:00,
2013-09-10 04:52:00,61.4,60.5,30.08,ESE,102,0.0,1.0,97,0.00,,BKN065,0.00,VWS V14.01,2013-09-10 08:52:00,
2013-09-10 04:57:00,61.3,60.4,30.09,ESE,103,0.0,2.0,97,0.00,,BKN065,0.00,VWS V14.01,2013-09-10 08:57:00,
2013-09-10 05:02:00,61.3,60.4,30.09,East,97,1.0,3.0,97,0.00,,BKN065,0.00,VWS V14.01,2013-09-10 09:02:00,
2013-09-10 05:07:00,61.2,60.3,30.09,ESE,107,0.0,3.0,97,0.00,,BKN065,0.00,VWS V14.01,2013-09-10 09:07:00,
2013-09-10 05:12:00,61.1,60.2,30.09,ESE,107,0.0,3.0,97,0.00,,BKN065,0.00,VWS V14.01,2013-09-10 09:12:00,
2013-09-10 05:17:00,61.1,60.2,30.09,ESE,107,0.0,3.0,97,0.00,,BKN065,0.00,VWS V14.01,2013-09-10 09:17:00,
2013-09-10 05:22:00,61.0,60.2,30.09,ESE,107,0.0,3.0,97,0.00,,BKN065,0.00,VWS V14.01,2013-09-10 09:22:00,
2013-09-10 05:27:00,60.9,60.0,30.08,ESE,107,0.0,3.0,97,0.00,,BKN065,0.00,VWS V14.01,2013-09-10 09:27:00,
2013-09-10 05:32:00,60.8,60.0,30.08,ESE,105,0.0,1.0,97,0.00,,BKN065,0.00,VWS V14.01,2013-09-10 09:32:00,
2013-09-10 05:37:00,60.8,60.2,30.08,ESE,105,0.0,1.0,98,0.00,,BKN065,0.00,VWS V14.01,2013-09-10 09:37:00,
2013-09-10 05:42:00,60.7,60.1,30.08,ESE,105,0.0,1.0,98,0.00,,BKN065,0.00,VWS V14.01,2013-09-10 09:42:00,
2013-09-10 05:47:00,60.7,60.1,30.08,East,98,0.0,2.0,98,0.00,,BKN065,0.00,VWS V14.01,2013-09-10 09:47:00,
2013-09-10 05:52:00,60.6,60.0,30.09,ESE,102,1.0,2.0,98,0.00,,BKN065,0.00,VWS V14.01,2013-09-10 09:52:00,
2013-09-10 05:57:00,60.6,60.0,30.09,NE,37,0.0,3.0,98,0.00,,BKN065,0.00,VWS V14.01,2013-09-10 09:57:00,
2013-09-10 06:02:00,60.5,59.9,30.09,NE,37,0.0,1.0,98,0.00,,FEW047,0.00,VWS V14.01,2013-09-10 10:02:00,
2013-09-10 06:07:00,60.4,59.8,30.09,NNE,33,2.0,2.0,98,0.00,,FEW047,0.00,VWS V14.01,2013-09-10 10:07:00,
2013-09-10 06:12:00,60.4,59.8,30.09,NNE,33,0.0,2.0,98,0.00,,FEW047,0.00,VWS V14.01,2013-09-10 10:12:00,
2013-09-10 06:17:00,60.4,59.8,30.10,NNE,33,0.0,2.0,98,0.00,,FEW047,0.00,VWS V14.01,2013-09-10 10:17:00,
2013-09-10 06:22:00,60.4,59.8,30.10,NNE,33,0.0,2.0,98,0.00,,FEW047,0.00,VWS V14.01,2013-09-10 10:22:00,
2013-09-10 06:27:00,60.3,59.7,30.10,NNE,32,0.0,2.0,98,0.00,,FEW047,0.00,VWS V14.01,2013-09-10 10:27:00,
2013-09-10 06:32:00,60.3,59.7,30.10,NNE,33,0.0,0.0,98,0.00,,SCT019,0.00,VWS V14.01,2013-09-10 10:32:00,
2013-09-10 06:37:00,60.4,59.8,30.10,NNE,33,0.0,0.0,98,0.00,,SCT019,0.00,VWS V14.01,2013-09-10 10:37:00,
2013-09-10 06:42:00,60.4,59.8,30.10,NNE,12,2.0,3.0,98,0.00,,SCT019,0.00,VWS V14.01,2013-09-10 10:42:00,
2013-09-10 06:47:00,60.5,59.9,30.10,NNE,30,0.0,3.0,98,0.00,,SCT019,0.00,VWS V14.01,2013-09-10 10:47:00,
2013-09-10 06:52:00,60.5,59.9,30.10,NNE,30,0.0,3.0,98,0.00,,SCT019,0.00,VWS V14.01,2013-09-10 10:52:00,
2013-09-10 06:57:00,60.5,59.9,30.10,NNE,30,0.0,3.0,98,0.00,,SCT019,0.00,VWS V14.01,2013-09-10 10:57:00,
2013-09-10 07:02:00,60.6,60.0,30.10,NNE,30,1.0,2.0,98,0.00,,FEW004,0.00,VWS V14.01,2013-09-10 11:02:00,
2013-09-10 07:07:00,60.7,60.1,30.10,NNE,23,0.0,2.0,98,0.00,,FEW004,0.00,VWS V14.01,2013-09-10 11:07:00,
2013-09-10 07:12:00,60.7,60.1,30.10,NNE,23,0.0,2.0,98,0.00,,FEW004,0.00,VWS V14.01,2013-09-10 11:12:00,
2013-09-10 07:17:00,60.8,60.2,30.10,NNE,24,0.0,2.0,98,0.00,,FEW004,0.00,VWS V14.01,2013-09-10 11:17:00,
2013-09-10 07:22:00,61.0,60.4,30.10,NNE,23,0.0,2.0,98,0.00,,FEW004,0.00,VWS V14.01,2013-09-10 11:22:00,
2013-09-10 07:27:00,61.2,60.6,30.10,NNE,23,0.0,2.0,98,0.00,,FEW004,0.00,VWS V14.01,2013-09-10 11:27:00,
2013-09-10 07:32:00,61.3,60.7,30.10,NNE,23,0.0,0.0,98,0.00,,FEW004,0.00,VWS V14.01,2013-09-10 11:32:00,
2013-09-10 07:37:00,61.4,60.8,30.10,NNE,25,0.0,0.0,98,0.00,,FEW004,0.00,VWS V14.01,2013-09-10 11:37:00,
2013-09-10 07:42:00,61.6,61.0,30.10,NNE,25,0.0,0.0,98,0.00,,FEW004,0.00,VWS V14.01,2013-09-10 11:42:00,
2013-09-10 07:47:00,61.8,61.2,30.10,NNE,23,0.0,0.0,98,0.00,,FEW004,0.00,VWS V14.01,2013-09-10 11:47:00,
2013-09-10 07:52:00,62.1,61.5,30.09,NNE,24,0.0,0.0,98,0.00,,FEW004,0.00,VWS V14.01,2013-09-10 11:52:00,
2013-09-10 07:57:00,62.3,61.7,30.09,NNE,25,0.0,0.0,98,0.00,,FEW004,0.00,VWS V14.01,2013-09-10 11:57:00,
2013-09-10 08:02:00,62.3,61.4,30.08,NNE,25,0.0,0.0,97,0.00,,-RA,0.00,VWS V14.01,2013-09-10 12:02:00,
2013-09-10 08:07:00,62.4,61.5,30.09,North,5,0.0,0.0,97,0.00,,-RA,0.00,VWS V14.01,2013-09-10 12:07:00,
2013-09-10 08:12:00,62.4,61.5,30.09,North,359,0.0,0.0,97,0.00,,-RA,0.00,VWS V14.01,2013-09-10 12:12:00,
2013-09-10 08:17:00,62.4,61.5,30.09,North,356,0.0,0.0,97,0.00,,-RA,0.00,VWS V14.01,2013-09-10 12:17:00,
2013-09-10 08:22:00,62.6,61.7,30.09,North,357,0.0,2.0,97,0.00,,-RA,0.00,VWS V14.01,2013-09-10 12:22:00,
2013-09-10 08:27:00,62.5,61.6,30.09,North,352,1.0,3.0,97,0.00,,-RA,0.00,VWS V14.01,2013-09-10 12:27:00,
2013-09-10 08:32:00,62.7,61.8,30.10,North,349,1.0,3.0,97,0.00,,-RA,0.00,VWS V14.01,2013-09-10 12:32:00,
2013-09-10 08:37:00,62.8,61.9,30.10,NNW,340,1.0,3.0,97,0.00,,-RA,0.00,VWS V14.01,2013-09-10 12:37:00,
2013-09-10 08:42:00,62.9,62.0,30.10,NNW,339,1.0,4.0,97,0.00,,-RA,0.00,VWS V14.01,2013-09-10 12:42:00,
2013-09-10 08:47:00,63.2,62.3,30.10,NNW,339,0.0,4.0,97,0.00,,-RA,0.00,VWS V14.01,2013-09-10 12:47:00,
2013-09-10 08:52:00,63.5,62.3,30.10,NNW,340,2.0,4.0,96,0.00,,-RA,0.00,VWS V14.01,2013-09-10 12:52:00,
2013-09-10 08:57:00,63.6,62.4,30.10,NNW,335,2.0,4.0,96,0.00,,-RA,0.00,VWS V14.01,2013-09-10 12:57:00,
2013-09-10 09:02:00,63.6,62.4,30.10,NNW,339,2.0,2.0,96,0.00,,FEW005,0.00,VWS V14.01,2013-09-10 13:02:00,
2013-09-10 09:07:00,63.7,62.5,30.11,NNW,340,0.0,3.0,96,0.00,,FEW005,0.00,VWS V14.01,2013-09-10 13:07:00,
2013-09-10 09:12:00,63.7,62.2,30.11,NNW,338,0.0,3.0,95,0.00,,FEW005,0.00,VWS V14.01,2013-09-10 13:12:00,
2013-09-10 09:17:00,63.8,62.6,30.11,WNW,289,1.0,3.0,96,0.00,,FEW005,0.00,VWS V14.01,2013-09-10 13:17:00,
2013-09-10 09:22:00,64.0,62.8,30.12,WNW,289,0.0,3.0,96,0.00,,FEW005,0.00,VWS V14.01,2013-09-10 13:22:00,
2013-09-10 09:27:00,64.2,62.7,30.12,West,278,0.0,3.0,95,0.00,,FEW005,0.00,VWS V14.01,2013-09-10 13:27:00,
2013-09-10 09:32:00,64.4,62.9,30.12,West,259,1.0,3.0,95,0.00,,BKN005,0.00,VWS V14.01,2013-09-10 13:32:00,
2013-09-10 09:37:00,64.5,63.0,30.12,WNW,293,2.0,3.0,95,0.00,,BKN005,0.00,VWS V14.01,2013-09-10 13:37:00,
2013-09-10 09:42:00,64.5,62.7,30.12,West,273,1.0,3.0,94,0.00,,BKN005,0.00,VWS V14.01,2013-09-10 13:42:00,
2013-09-10 09:47:00,64.7,62.9,30.12,WNW,284,1.0,3.0,94,0.00,,BKN005,0.00,VWS V14.01,2013-09-10 13:47:00,
2013-09-10 09:52:00,64.8,63.0,30.12,West,281,0.0,3.0,94,0.00,,BKN005,0.00,VWS V14.01,2013-09-10 13:52:00,
2013-09-10 09:57:00,65.2,63.7,30.12,West,281,0.0,3.0,95,0.00,,BKN005,0.00,VWS V14.01,2013-09-10 13:57:00,
2013-09-10 10:02:00,65.7,63.9,30.11,West,281,0.0,0.0,94,0.00,,FEW005,0.00,VWS V14.01,2013-09-10 14:02:00,
2013-09-10 10:07:00,66.4,64.3,30.11,West,276,0.0,1.0,93,0.00,,FEW005,0.00,VWS V14.01,2013-09-10 14:07:00,
2013-09-10 10:12:00,67.5,65.4,30.11,West,262,1.0,1.0,93,0.00,,FEW005,0.00,VWS V14.01,2013-09-10 14:12:00,
2013-09-10 10:17:00,68.1,65.4,30.10,WSW,243,0.0,1.0,91,0.00,,FEW005,0.00,VWS V14.01,2013-09-10 14:17:00,
2013-09-10 10:22:00,68.8,65.4,30.10,WNW,283,2.0,3.0,89,0.00,,FEW005,0.00,VWS V14.01,2013-09-10 14:22:00,
2013-09-10 10:27:00,69.3,65.6,30.09,NW,318,0.0,3.0,88,0.00,,FEW005,0.00,VWS V14.01,2013-09-10 14:27:00,
2013-09-10 10:32:00,69.7,65.3,30.09,SW,221,1.0,2.0,86,0.00,,FEW005,0.00,VWS V14.01,2013-09-10 14:32:00,
2013-09-10 10:37:00,70.0,66.0,30.08,SW,224,0.0,2.0,87,0.00,,FEW005,0.00,VWS V14.01,2013-09-10 14:37:00,
2013-09-10 10:42:00,71.1,67.0,30.09,SSW,194,0.0,2.0,87,0.00,,FEW005,0.00,VWS V14.01,2013-09-10 14:42:00,
2013-09-10 10:47:00,71.6,66.5,30.09,South,186,0.0,2.0,84,0.00,,FEW005,0.00,VWS V14.01,2013-09-10 14:47:00,
2013-09-10 10:52:00,72.2,67.1,30.09,NW,323,2.0,2.0,84,0.00,,FEW005,0.00,VWS V14.01,2013-09-10 14:52:00,
2013-09-10 10:57:00,73.2,67.4,30.09,NNE,15,0.0,2.0,82,0.00,,FEW005,0.00,VWS V14.01,2013-09-10 14:57:00,
2013-09-10 11:02:00,73.6,67.4,30.09,SSE,166,1.0,2.0,81,0.00,,CLR,0.00,VWS V14.01,2013-09-10 15:02:00,
2013-09-10 11:06:00,73.7,66.8,30.08,SSW,212,2.0,2.0,79,0.00,,CLR,0.00,VWS V14.01,2013-09-10 15:06:00,
2013-09-10 11:12:00,73.6,67.1,30.08,SW,233,0.0,2.0,80,0.00,,CLR,0.00,VWS V14.01,2013-09-10 15:12:00,
2013-09-10 11:17:00,73.8,67.2,30.08,West,281,0.0,3.0,80,0.00,,CLR,0.00,VWS V14.01,2013-09-10 15:17:00,
2013-09-10 11:21:00,74.2,67.3,30.08,SSE,163,1.0,3.0,79,0.00,,CLR,0.00,VWS V14.01,2013-09-10 15:21:00,
2013-09-10 11:27:00,74.1,66.8,30.08,SW,236,1.0,4.0,78,0.00,,CLR,0.00,VWS V14.01,2013-09-10 15:27:00,
2013-09-10 11:31:00,73.8,66.9,30.08,SW,224,1.0,1.0,79,0.00,,CLR,0.00,VWS V14.01,2013-09-10 15:31:00,
2013-09-10 11:36:00,74.0,67.4,30.08,SW,215,3.0,3.0,80,0.00,,CLR,0.00,VWS V14.01,2013-09-10 15:36:00,
2013-09-10 11:41:00,74.1,67.5,30.08,SW,233,0.0,3.0,80,0.00,,CLR,0.00,VWS V14.01,2013-09-10 15:41:00,
2013-09-10 11:46:00,74.6,68.0,30.07,SSE,160,1.0,3.0,80,0.00,,CLR,0.00,VWS V14.01,2013-09-10 15:46:00,
2013-09-10 11:51:00,75.2,68.2,30.07,SSW,195,0.0,3.0,79,0.00,,CLR,0.00,VWS V14.01,2013-09-10 15:51:00,
2013-09-10 11:56:00,76.0,68.3,30.07,SSE,162,0.0,3.0,77,0.00,,CLR,0.00,VWS V14.01,2013-09-10 15:56:00,
2013-09-10 12:01:00,76.6,68.5,30.07,SSE,157,2.0,2.0,76,0.00,,CLR,0.00,VWS V14.01,2013-09-10 16:01:00,
2013-09-10 12:06:00,77.5,69.7,30.07,SSE,162,0.0,2.0,77,0.00,,CLR,0.00,VWS V14.01,2013-09-10 16:06:00,
2013-09-10 12:11:00,78.3,68.9,30.07,SW,226,0.0,2.0,73,0.00,,CLR,0.00,VWS V14.01,2013-09-10 16:11:00,
2013-09-10 12:16:00,78.2,68.4,30.07,SW,222,2.0,4.0,72,0.00,,CLR,0.00,VWS V14.01,2013-09-10 16:16:00,
2013-09-10 12:21:00,78.6,68.8,30.07,SW,219,1.0,4.0,72,0.00,,CLR,0.00,VWS V14.01,2013-09-10 16:21:00,
2013-09-10 12:26:00,78.5,69.5,30.07,SE,139,2.0,5.0,74,0.00,,CLR,0.00,VWS V14.01,2013-09-10 16:26:00,
2013-09-10 12:31:00,79.8,70.0,30.06,SE,141,1.0,2.0,72,0.00,,CLR,0.00,VWS V14.01,2013-09-10 16:31:00,
2013-09-10 12:36:00,81.0,70.3,30.06,SE,146,2.0,2.0,70,0.00,,CLR,0.00,VWS V14.01,2013-09-10 16:36:00,
2013-09-10 12:41:00,80.8,69.3,30.06,ESE,117,2.0,3.0,68,0.00,,CLR,0.00,VWS V14.01,2013-09-10 16:41:00,
2013-09-10 12:46:00,80.3,69.6,30.06,ESE,104,0.0,3.0,70,0.00,,CLR,0.00,VWS V14.01,2013-09-10 16:46:00,
2013-09-10 12:51:00,80.8,70.1,30.06,ESE,120,0.0,3.0,70,0.00,,CLR,0.00,VWS V14.01,2013-09-10 16:51:00,
2013-09-10 12:56:00,81.7,71.0,30.05,ESE,120,0.0,3.0,70,0.00,,CLR,0.00,VWS V14.01,2013-09-10 16:56:00,
2013-09-10 13:01:00,82.7,70.2,30.05,ESE,113,1.0,3.0,66,0.00,,CLR,0.00,VWS V14.01,2013-09-10 17:01:00,
2013-09-10 13:06:00,82.4,70.3,30.05,ESE,109,1.0,3.0,67,0.00,,CLR,0.00,VWS V14.01,2013-09-10 17:06:00,
2013-09-10 13:11:00,82.7,70.6,30.05,ESE,109,0.0,3.0,67,0.00,,CLR,0.00,VWS V14.01,2013-09-10 17:11:00,
2013-09-10 13:16:00,82.3,70.7,30.05,ESE,113,0.0,3.0,68,0.00,,CLR,0.00,VWS V14.01,2013-09-10 17:16:00,
2013-09-10 13:21:00,83.2,71.1,30.04,WSW,257,1.0,3.0,67,0.00,,CLR,0.00,VWS V14.01,2013-09-10 17:21:00,
2013-09-10 13:26:00,83.3,70.8,30.04,West,259,2.0,5.0,66,0.00,,CLR,0.00,VWS V14.01,2013-09-10 17:26:00,
2013-09-10 13:31:00,83.4,70.9,30.04,West,262,0.0,1.0,66,0.00,,CLR,0.00,VWS V14.01,2013-09-10 17:31:00,
2013-09-10 13:36:00,83.6,70.6,30.04,West,277,1.0,3.0,65,0.00,,CLR,0.00,VWS V14.01,2013-09-10 17:36:00,
2013-09-10 13:41:00,84.2,72.1,30.04,West,281,0.0,3.0,67,0.00,,CLR,0.00,VWS V14.01,2013-09-10 17:41:00,
2013-09-10 13:46:00,85.2,71.2,30.04,West,280,3.0,4.0,63,0.00,,CLR,0.00,VWS V14.01,2013-09-10 17:46:00,
2013-09-10 13:51:00,85.0,71.5,30.04,South,186,2.0,4.0,64,0.00,,CLR,0.00,VWS V14.01,2013-09-10 17:51:00,
2013-09-10 13:56:00,85.6,72.0,30.03,East,90,1.0,4.0,64,0.00,,CLR,0.00,VWS V14.01,2013-09-10 17:56:00,
2013-09-10 14:01:00,86.1,72.0,30.03,East,100,0.0,0.0,63,0.00,,CLR,0.00,VWS V14.01,2013-09-10 18:01:00,
2013-09-10 14:06:00,86.3,72.2,30.03,WSW,249,1.0,2.0,63,0.00,,CLR,0.00,VWS V14.01,2013-09-10 18:06:00,
2013-09-10 14:11:00,86.9,71.8,30.03,SW,217,3.0,3.0,61,0.00,,CLR,0.00,VWS V14.01,2013-09-10 18:11:00,
2013-09-10 14:16:00,86.3,71.8,30.02,SW,225,1.0,4.0,62,0.00,,CLR,0.00,VWS V14.01,2013-09-10 18:16:00,
2013-09-10 14:21:00,86.4,71.8,30.02,SSW,201,1.0,4.0,62,0.00,,CLR,0.00,VWS V14.01,2013-09-10 18:21:00,
2013-09-10 14:26:00,86.8,72.2,30.02,West,278,2.0,4.0,62,0.00,,CLR,0.00,VWS V14.01,2013-09-10 18:26:00,
2013-09-10 14:31:00,87.1,72.5,30.02,SW,227,0.0,0.0,62,0.00,,CLR,0.00,VWS V14.01,2013-09-10 18:31:00,
2013-09-10 14:36:00,87.8,74.1,30.02,West,276,0.0,1.0,64,0.00,,CLR,0.00,VWS V14.01,2013-09-10 18:36:00,
2013-09-10 14:41:00,88.9,72.7,30.01,SW,224,0.0,2.0,59,0.00,,CLR,0.00,VWS V14.01,2013-09-10 18:41:00,
2013-09-10 14:46:00,88.9,72.7,30.01,West,259,1.0,3.0,59,0.00,,CLR,0.00,VWS V14.01,2013-09-10 18:46:00,
2013-09-10 14:51:00,89.2,73.5,30.01,ESE,123,1.0,3.0,60,0.00,,CLR,0.00,VWS V14.01,2013-09-10 18:51:00,
2013-09-10 14:56:00,90.2,73.4,30.01,WNW,288,3.0,3.0,58,0.00,,CLR,0.00,VWS V14.01,2013-09-10 18:56:00,
2013-09-10 15:01:00,90.5,73.2,30.01,WNW,284,0.0,1.0,57,0.00,,CLR,0.00,VWS V14.01,2013-09-10 19:01:00,
2013-09-10 15:06:00,91.0,74.2,30.00,ENE,78,0.0,2.0,58,0.00,,CLR,0.00,VWS V14.01,2013-09-10 19:06:00,
2013-09-10 15:11:00,91.4,74.0,30.00,SW,215,2.0,4.0,57,0.00,,CLR,0.00,VWS V14.01,2013-09-10 19:11:00,
2013-09-10 15:16:00,91.1,74.3,30.00,WSW,240,2.0,4.0,58,0.00,,CLR,0.00,VWS V14.01,2013-09-10 19:16:00,
2013-09-10 15:21:00,91.3,73.9,30.00,East,97,0.0,5.0,57,0.00,,CLR,0.00,VWS V14.01,2013-09-10 19:21:00,
2013-09-10 15:26:00,92.1,74.2,30.00,WSW,252,1.0,5.0,56,0.00,,CLR,0.00,VWS V14.01,2013-09-10 19:26:00,
2013-09-10 15:31:00,92.3,74.9,29.99,NNW,330,1.0,5.0,57,0.00,,CLR,0.00,VWS V14.01,2013-09-10 19:31:00,
2013-09-10 15:36:00,92.6,74.6,29.99,West,276,2.0,5.0,56,0.00,,CLR,0.00,VWS V14.01,2013-09-10 19:36:00,
2013-09-10 15:41:00,92.9,74.4,29.99,SW,228,2.0,7.0,55,0.00,,CLR,0.00,VWS V14.01,2013-09-10 19:41:00,
2013-09-10 15:46:00,92.5,74.5,29.99,NNW,334,1.0,7.0,56,0.00,,CLR,0.00,VWS V14.01,2013-09-10 19:46:00,
2013-09-10 15:51:00,92.6,74.6,29.99,WNW,297,3.0,7.0,56,0.00,,CLR,0.00,VWS V14.01,2013-09-10 19:51:00,
2013-09-10 15:56:00,92.6,74.6,29.99,West,278,3.0,7.0,56,0.00,,CLR,0.00,VWS V14.01,2013-09-10 19:56:00,
2013-09-10 16:01:00,91.9,74.5,29.99,WNW,287,1.0,3.0,57,0.00,,CLR,0.00,VWS V14.01,2013-09-10 20:01:00,
2013-09-10 16:06:00,92.2,74.8,29.99,SW,224,0.0,4.0,57,0.00,,CLR,0.00,VWS V14.01,2013-09-10 20:06:00,
2013-09-10 16:11:00,93.0,74.5,29.99,West,270,0.0,5.0,55,0.00,,CLR,0.00,VWS V14.01,2013-09-10 20:11:00,
2013-09-10 16:16:00,93.4,74.8,29.99,WNW,284,2.0,5.0,55,0.00,,CLR,0.00,VWS V14.01,2013-09-10 20:16:00,
2013-09-10 16:21:00,94.0,74.8,29.99,SW,231,3.0,6.0,54,0.00,,CLR,0.00,VWS V14.01,2013-09-10 20:21:00,
2013-09-10 16:26:00,93.8,74.7,29.99,East,97,1.0,6.0,54,0.00,,CLR,0.00,VWS V14.01,2013-09-10 20:26:00,
2013-09-10 16:31:00,93.8,75.7,29.99,WNW,285,4.0,4.0,56,0.00,,CLR,0.00,VWS V14.01,2013-09-10 20:31:00,
2013-09-10 16:36:00,93.9,74.7,29.98,WNW,290,5.0,9.0,54,0.00,,CLR,0.00,VWS V14.01,2013-09-10 20:36:00,
2013-09-10 16:41:00,93.8,74.7,29.98,West,266,3.0,11.0,54,0.00,,CLR,0.00,VWS V14.01,2013-09-10 20:41:00,
2013-09-10 16:46:00,93.9,74.7,29.98,SSW,210,0.0,11.0,54,0.00,,CLR,0.00,VWS V14.01,2013-09-10 20:46:00,
2013-09-10 16:51:00,94.0,74.8,29.98,NW,325,12.0,12.0,54,0.00,,CLR,0.00,VWS V14.01,2013-09-10 20:51:00,
2013-09-10 16:56:00,93.9,74.7,29.98,NW,304,8.0,12.0,54,0.00,,CLR,0.00,VWS V14.01,2013-09-10 20:56:00,
2013-09-10 17:01:00,93.4,74.3,29.98,West,264,4.0,6.0,54,0.00,,CLR,0.00,VWS V14.01,2013-09-10 21:01:00,
2013-09-10 17:06:00,93.2,74.6,29.98,WNW,288,3.0,9.0,55,0.00,,CLR,0.00,VWS V14.01,2013-09-10 21:06:00,
2013-09-10 17:11:00,92.8,74.8,29.98,WSW,253,4.0,9.0,56,0.00,,CLR,0.00,VWS V14.01,2013-09-10 21:11:00,
2013-09-10 17:16:00,92.9,74.9,29.98,SW,231,5.0,9.0,56,0.00,,CLR,0.00,VWS V14.01,2013-09-10 21:16:00,
2013-09-10 17:21:00,93.2,74.6,29.98,SW,215,4.0,9.0,55,0.00,,CLR,0.00,VWS V14.01,2013-09-10 21:21:00,
2013-09-10 17:26:00,93.2,75.2,29.98,WSW,244,0.0,9.0,56,0.00,,CLR,0.00,VWS V14.01,2013-09-10 21:26:00,
2013-09-10 17:31:00,93.4,74.8,29.98,WNW,291,4.0,5.0,55,0.00,,CLR,0.00,VWS V14.01,2013-09-10 21:31:00,
2013-09-10 17:36:00,93.5,74.9,29.98,SW,231,3.0,8.0,55,0.00,,CLR,0.00,VWS V14.01,2013-09-10 21:36:00,
2013-09-10 17:41:00,93.4,74.8,29.98,SW,235,2.0,8.0,55,0.00,,CLR,0.00,VWS V14.01,2013-09-10 21:41:00,
2013-09-10 17:46:00,93.5,74.9,29.98,SSW,207,7.0,8.0,55,0.00,,CLR,0.00,VWS V14.01,2013-09-10 21:46:00,
2013-09-10 17:51:00,93.1,74.6,29.98,SW,226,3.0,8.0,55,0.00,,CLR,0.00,VWS V14.01,2013-09-10 21:51:00,
2013-09-10 17:56:00,92.9,74.9,29.98,SW,215,2.0,9.0,56,0.00,,CLR,0.00,VWS V14.01,2013-09-10 21:56:00,
2013-09-10 18:01:00,92.9,74.9,29.98,SW,232,4.0,7.0,56,0.00,,SCT055,0.00,VWS V14.01,2013-09-10 22:01:00,
2013-09-10 18:06:00,92.9,74.9,29.98,SW,215,0.0,7.0,56,0.00,,SCT055,0.00,VWS V14.01,2013-09-10 22:06:00,
2013-09-10 18:11:00,92.7,74.7,29.98,SW,221,2.0,7.0,56,0.00,,SCT055,0.00,VWS V14.01,2013-09-10 22:11:00,
2013-09-10 18:16:00,92.5,75.1,29.98,SW,217,3.0,7.0,57,0.00,,SCT055,0.00,VWS V14.01,2013-09-10 22:16:00,
2013-09-10 18:21:00,92.5,75.1,29.98,SSW,212,0.0,7.0,57,0.00,,SCT055,0.00,VWS V14.01,2013-09-10 22:21:00,
2013-09-10 18:26:00,92.4,75.0,29.98,WSW,250,2.0,8.0,57,0.00,,SCT055,0.00,VWS V14.01,2013-09-10 22:26:00,
2013-09-10 18:31:00,92.4,75.5,29.98,SW,215,1.0,4.0,58,0.00,,SCT055,0.00,VWS V14.01,2013-09-10 22:31:00,
2013-09-10 18:36:00,92.1,75.2,29.98,South,187,3.0,6.0,58,0.00,,SCT055,0.00,VWS V14.01,2013-09-10 22:36:00,
2013-09-10 18:41:00,91.8,74.9,29.98,SW,231,4.0,8.0,58,0.00,,SCT055,0.00,VWS V14.01,2013-09-10 22:41:00,
2013-09-10 18:46:00,91.3,75.0,29.98,SE,141,3.0,8.0,59,0.00,,SCT055,0.00,VWS V14.01,2013-09-10 22:46:00,
2013-09-10 18:51:00,91.1,75.3,29.98,SSW,210,4.0,8.0,60,0.00,,SCT055,0.00,VWS V14.01,2013-09-10 22:51:00,
2013-09-10 18:56:00,90.7,74.9,29.98,SSW,210,3.0,9.0,60,0.00,,SCT055,0.00,VWS V14.01,2013-09-10 22:56:00,
2013-09-10 19:01:00,90.4,74.6,29.98,West,259,4.0,7.0,60,0.00,,BKN055,0.00,VWS V14.01,2013-09-10 23:01:00,
2013-09-10 19:06:00,90.1,74.8,29.98,SW,215,3.0,7.0,61,0.00,,BKN055,0.00,VWS V14.01,2013-09-10 23:06:00,
2013-09-10 19:11:00,89.6,74.9,29.98,SSW,207,4.0,8.0,62,0.00,,BKN055,0.00,VWS V14.01,2013-09-10 23:11:00,
2013-09-10 19:16:00,89.4,74.7,29.98,SW,222,2.0,8.0,62,0.00,,BKN055,0.00,VWS V14.01,2013-09-10 23:16:00,
2013-09-10 19:21:00,89.1,74.9,29.98,SSW,195,4.0,8.0,63,0.00,,BKN055,0.00,VWS V14.01,2013-09-10 23:21:00,
2013-09-10 19:26:00,89.0,74.8,29.99,SW,219,3.0,8.0,63,0.00,,BKN055,0.00,VWS V14.01,2013-09-10 23:26:00,
2013-09-10 19:31:00,88.9,74.7,29.99,SSE,153,3.0,3.0,63,0.00,,BKN055,0.00,VWS V14.01,2013-09-10 23:31:00,
2013-09-10 19:36:00,88.7,74.5,29.99,West,274,0.0,4.0,63,0.00,,BKN055,0.00,VWS V14.01,2013-09-10 23:36:00,
2013-09-10 19:41:00,88.6,74.4,29.99,WNW,285,1.0,6.0,63,0.00,,BKN055,0.00,VWS V14.01,2013-09-10 23:41:00,
2013-09-10 19:46:00,88.5,74.3,29.99,WSW,238,0.0,6.0,63,0.00,,BKN055,0.00,VWS V14.01,2013-09-10 23:46:00,
2013-09-10 19:51:00,88.3,74.6,30.00,West,278,3.0,6.0,64,0.00,,BKN055,0.00,VWS V14.01,2013-09-10 23:51:00,
2013-09-10 19:56:00,88.1,74.4,30.00,West,264,0.0,6.0,64,0.00,,BKN055,0.00,VWS V14.01,2013-09-10 23:56:00,
2013-09-10 20:01:00,87.8,74.6,30.00,West,263,0.0,0.0,65,0.00,,CLR,0.00,VWS V14.01,2013-09-11 00:01:00,
2013-09-10 20:06:00,87.5,74.8,30.00,West,262,0.0,0.0,66,0.00,,CLR,0.00,VWS V14.01,2013-09-11 00:06:00,
2013-09-10 20:11:00,87.2,74.5,30.01,West,263,0.0,0.0,66,0.00,,CLR,0.00,VWS V14.01,2013-09-11 00:11:00,
2013-09-10 20:16:00,86.8,74.5,30.01,West,262,0.0,0.0,67,0.00,,CLR,0.00,VWS V14.01,2013-09-11 00:16:00,
2013-09-10 20:21:00,86.5,74.7,30.01,WSW,253,0.0,0.0,68,0.00,,CLR,0.00,VWS V14.01,2013-09-11 00:21:00,
2013-09-10 20:26:00,86.1,74.8,30.01,WSW,257,0.0,1.0,69,0.00,,CLR,0.00,VWS V14.01,2013-09-11 00:26:00,
2013-09-10 20:31:00,85.8,74.5,30.01,WSW,257,0.0,0.0,69,0.00,,CLR,0.00,VWS V14.01,2013-09-11 00:31:00,
2013-09-10 20:36:00,85.4,74.5,30.02,WSW,243,0.0,1.0,70,0.00,,CLR,0.00,VWS V14.01,2013-09-11 00:36:00,
2013-09-10 20:41:00,85.2,74.3,30.02,WSW,243,0.0,1.0,70,0.00,,CLR,0.00,VWS V14.01,2013-09-11 00:41:00,
2013-09-10 20:46:00,84.9,74.4,30.02,WSW,243,0.0,1.0,71,0.00,,CLR,0.00,VWS V14.01,2013-09-11 00:46:00,
2013-09-10 20:51:00,84.9,74.4,30.02,WSW,243,0.0,1.0,71,0.00,,CLR,0.00,VWS V14.01,2013-09-11 00:51:00,
2013-09-10 20:56:00,84.7,74.3,30.02,WSW,243,0.0,1.0,71,0.00,,CLR,0.00,VWS V14.01,2013-09-11 00:56:00,
2013-09-10 21:01:00,84.5,74.5,30.02,WSW,243,0.0,0.0,72,0.00,,CLR,0.00,VWS V14.01,2013-09-11 01:01:00,
2013-09-10 21:06:00,84.0,74.4,30.03,SSW,205,0.0,1.0,73,0.00,,CLR,0.00,VWS V14.01,2013-09-11 01:06:00,
2013-09-10 21:11:00,83.7,74.5,30.02,SSW,205,0.0,1.0,74,0.00,,CLR,0.00,VWS V14.01,2013-09-11 01:11:00,
2013-09-10 21:16:00,83.3,74.6,30.03,West,269,0.0,1.0,75,0.00,,CLR,0.00,VWS V14.01,2013-09-11 01:16:00,
2013-09-10 21:21:00,82.8,74.5,30.03,West,266,0.0,1.0,76,0.00,,CLR,0.00,VWS V14.01,2013-09-11 01:21:00,
2013-09-10 21:26:00,82.4,74.9,30.03,West,269,0.0,1.0,78,0.00,,CLR,0.00,VWS V14.01,2013-09-11 01:26:00,
2013-09-10 21:31:00,82.0,74.8,30.03,West,269,0.0,0.0,79,0.00,,CLR,0.00,VWS V14.01,2013-09-11 01:31:00,
2013-09-10 21:36:00,81.6,74.8,30.03,West,269,0.0,0.0,80,0.00,,CLR,0.00,VWS V14.01,2013-09-11 01:36:00,
2013-09-10 21:41:00,81.1,74.7,30.03,WNW,297,0.0,1.0,81,0.00,,CLR,0.00,VWS V14.01,2013-09-11 01:41:00,
2013-09-10 21:46:00,80.7,74.7,30.04,NNE,21,0.0,3.0,82,0.00,,CLR,0.00,VWS V14.01,2013-09-11 01:46:00,
2013-09-10 21:51:00,80.3,74.7,30.04,NNE,22,0.0,3.0,83,0.00,,CLR,0.00,VWS V14.01,2013-09-11 01:51:00,
2013-09-10 21:56:00,79.9,74.6,30.04,NNE,25,0.0,3.0,84,0.00,,CLR,0.00,VWS V14.01,2013-09-11 01:56:00,
2013-09-10 22:01:00,79.6,74.7,30.05,NNE,26,0.0,0.0,85,0.00,,CLR,0.00,VWS V14.01,2013-09-11 02:01:00,
2013-09-10 22:06:00,79.2,74.7,30.05,NNE,27,0.0,4.0,86,0.00,,CLR,0.00,VWS V14.01,2013-09-11 02:06:00,
2013-09-10 22:11:00,78.9,74.4,30.05,NNE,19,1.0,4.0,86,0.00,,CLR,0.00,VWS V14.01,2013-09-11 02:11:00,
2013-09-10 22:16:00,78.7,74.5,30.05,North,1,1.0,4.0,87,0.00,,CLR,0.00,VWS V14.01,2013-09-11 02:16:00,
2013-09-10 22:21:00,78.6,74.4,30.05,NE,35,0.0,4.0,87,0.00,,CLR,0.00,VWS V14.01,2013-09-11 02:21:00,
2013-09-10 22:26:00,78.4,74.2,30.05,NNE,26,2.0,4.0,87,0.00,,CLR,0.00,VWS V14.01,2013-09-11 02:26:00,
2013-09-10 22:31:00,78.3,74.5,30.05,NNE,33,1.0,2.0,88,0.00,,CLR,0.00,VWS V14.01,2013-09-11 02:31:00,
2013-09-10 22:36:00,78.1,74.3,30.05,NNE,15,0.0,3.0,88,0.00,,CLR,0.00,VWS V14.01,2013-09-11 02:36:00,
2013-09-10 22:41:00,77.9,74.1,30.06,NNE,29,0.0,3.0,88,0.00,,CLR,0.00,VWS V14.01,2013-09-11 02:41:00,
2013-09-10 22:46:00,77.8,74.0,30.06,NNE,33,0.0,3.0,88,0.00,,CLR,0.00,VWS V14.01,2013-09-11 02:46:00,
2013-09-10 22:51:00,77.6,74.1,30.06,NNE,33,0.0,3.0,89,0.00,,CLR,0.00,VWS V14.01,2013-09-11 02:51:00,
2013-09-10 22:56:00,77.5,74.0,30.06,NNE,30,1.0,3.0,89,0.00,,CLR,0.00,VWS V14.01,2013-09-11 02:56:00,
2013-09-10 23:01:00,77.4,73.9,30.06,NNE,20,0.0,0.0,89,0.00,,,0.00,VWS V14.01,2013-09-11 03:01:00,
2013-09-10 23:06:00,77.2,74.0,30.06,NNE,22,0.0,2.0,90,0.00,,,0.00,VWS V14.01,2013-09-11 03:06:00,
2013-09-10 23:11:00,77.1,73.9,30.06,NE,37,0.0,2.0,90,0.00,,,0.00,VWS V14.01,2013-09-11 03:11:00,
2013-09-10 23:16:00,76.9,73.8,30.06,NE,47,0.0,2.0,90,0.00,,,0.00,VWS V14.01,2013-09-11 03:16:00,
2013-09-10 23:21:00,76.8,73.7,30.06,NE,34,0.0,2.0,90,0.00,,,0.00,VWS V14.01,2013-09-11 03:21:00,
2013-09-10 23:26:00,76.7,73.9,30.06,NE,37,1.0,2.0,91,0.00,,,0.00,VWS V14.01,2013-09-11 03:26:00,
2013-09-10 23:31:00,76.6,73.8,30.06,NNE,16,1.0,1.0,91,0.00,,,0.00,VWS V14.01,2013-09-11 03:31:00,
2013-09-10 23:36:00,76.5,73.7,30.06,NNE,15,0.0,2.0,91,0.00,,,0.00,VWS V14.01,2013-09-11 03:36:00,
2013-09-10 23:41:00,76.4,73.6,30.06,East,84,2.0,2.0,91,0.00,,,0.00,VWS V14.01,2013-09-11 03:41:00,
2013-09-10 23:46:00,76.3,73.5,30.06,East,84,1.0,3.0,91,0.00,,,0.00,VWS V14.01,2013-09-11 03:46:00,
2013-09-10 23:51:00,76.1,73.3,30.06,NNE,32,0.0,3.0,91,0.00,,,0.00,VWS V14.01,2013-09-11 03:51:00,
2013-09-10 23:56:00,76.0,73.2,30.06,North,1,0.0,3.0,91,0.00,,,0.00,VWS V14.01,2013-09-11 03:56:00,